Rbgn^[z[y[W
メイン
   新天体発見情報
     Comet C/2016 VZ18 (PANSTARRS)
投稿するにはまず登録を

スレッド表示 | 新しいものから 前のトピック | 次のトピック | 下へ
投稿者 スレッド
佐藤裕久
投稿日時: 2017-2-4 15:17
モデレータ
登録日: 2005-6-12
居住地: 日本
投稿: 1752
オンライン
Comet C/2016 VZ18 (PANSTARRS)

2016年11月6日、Haleakalaにある1.8-m Ritchey-Chretien Pan-STARRS1望遠鏡で小惑星状天体が
発見された。2016 VZ18と小惑星仮符号が与えられた (MPEC 2016-Y02とMPS 752865を参照)。
2017年1月27.9日、 M. Micheli、D. Koschny、A. Knoefel、M. Busch、E. Schwabと D. Abreuが
カナリア諸島にあるESA(欧州宇宙機関)の光学地上局の1.0-m 反射望遠鏡で得た90秒の確認CCD画像
12枚から彗星状であることがわかった。
M. Micheliらは、1月27日の画像を拡散し西に約15"伸びた広がった尾の形から明確な彗星活動
が見られる。G-バンド光度は19.5-19.7と測定した。

発見位置は次のとおり、

     2016 UT             R.A. (2000) Decl.       Mag.
     Nov.  6.43579    2 56 05.80   -22 26 25.9   21.8
           6.45797    2 56 03.95   -22 26 34.5   21.8
           6.46909    2 56 03.00   -22 26 39.1   21.5

楕円軌道要素と位置推算表は次のとおり、


Orbital elements:
    C/2016 VZ18 (PANSTARRS)
Epoch 2017 Feb. 16.0 TT = JDT 2457800.5
T 2017 Mar. 7.37988 TT                                  MPC
q   0.9102677            (2000.0)            P               Q
z  +0.0051364      Peri.   36.38565     -0.66049037     -0.63393674
 +/-0.0000036      Node    98.95510     +0.55612309     -0.77306556
e   0.9953245      Incl.   24.03558     +0.50445969     +0.02222277
From 86 observations 2016 Oct. 8-2017 Jan. 27, mean residual 0".38.

Ephemeris:
    C/2016 VZ18 (PANSTARRS)
Date    TT    R. A. (2000) Decl.     Delta      r     Elong.  Phase   m1
2016 12 28    01 46 31.5 -15 39 46   0.9499  1.4916   101.0    40.3  21.1
...
2017 01 12    01 41 52.3 -08 38 39   0.8892  1.3101    88.6    48.6  20.4
...
2017 01 20    01 43 21.4 -04 02 27   0.8535  1.2189    82.8    53.2  20.0
...
2017 01 26    01 46 08.7 -00 10 09   0.8244  1.1544    78.8    56.8  19.7
2017 01 27    01 46 44.6 +00 30 47   0.8194  1.1441    78.1    57.4  19.7
2017 01 28    01 47 22.7 +01 12 24   0.8143  1.1339    77.5    58.0  19.6
...
2017 02 03    01 51 55.9 +05 36 33   0.7823  1.0759    74.0    61.7  19.3
...
2017 02 11    01 59 50.6 +12 10 46   0.7368  1.0087    69.9    66.8  18.9
...
2017 02 26    02 19 56.8 +26 59 42   0.6485  0.9257    64.9    75.7  18.2

(CBET 4350、MPEC 2017-B83)

スレッド表示 | 新しいものから 前のトピック | 次のトピック | トップ

投稿するにはまず登録を
 
© 1999-2013 Tsutomu Seki.